Weather History for Park Rapids, MN

Change the Weather History Date:

Friday, June 13, 2014

  Actual Average Record
Temperature  
Mean Temperature 58 °F -  
Max Temperature 73 °F 77 °F 94 °F (1987)
Min Temperature 43 °F 51 °F 31 °F (1969)
Degree Days  
Heating Degree Days 8    
Growing Degree Days 8 (Base 50)    
Moisture  
Dew Point 43 °F    
Average Humidity 59    
Maximum Humidity 97    
Minimum Humidity 31    
Precipitation  
Precipitation 0.02 in - - ()
Sea Level Pressure  
Sea Level Pressure 29.96 in    
Wind  
Wind Speed 5 mph (SSE)    
Max Wind Speed 14 mph    
Max Gust Speed 17 mph    
Visibility 10 miles    
Events Rain    
Averages and records for this station are not official NWS values.
T = Trace of Precipitation, MM = Missing Value Source: NWS Daily Summary

Daily Weather History Graph

Daily Weather History Graph

Search for Another Location

Airport:

Trip Planner

Search our weather history database for the weather conditions in past years. The results will help you decide how hot, cold, wet, or windy it might be!

Date:

Astronomy

Jun. 13, 2014 Rise Set
Actual Time 5:25 AM CDT 9:15 PM CDT
Civil Twilight 4:45 AM CDT 9:55 PM CDT
Nautical Twilight 3:51 AM CDT 10:49 PM CDT
Astronomical Twilight 2:32 AM CDT 12:08 AM CDT
Moon 9:41 PM CDT (6/13) 6:10 AM CDT (6/13)
Length of Visible Light 17h 09m
Length of Day
15h 50m
Full, 100% of the Moon is Illuminated
Jun 13
Full
Jun 19
Last Quarter
Jun 27
New
Jul 5
First Quarter
Jul 12
Full

Hourly Weather History & Observations

Time (CDT) Temp. Windchill Dew Point Humidity Pressure Visibility Wind Dir Wind Speed Gust Speed Precip Events Conditions
12:53 AM 48.0 °F - 44.1 °F 86% 30.01 in 10.0 mi WNW 8.1 mph - N/A   Clear
1:53 AM 45.0 °F 41.8 °F 43.0 °F 93% 30.01 in 10.0 mi WNW 5.8 mph - N/A   Clear
2:53 AM 46.9 °F - 43.0 °F 86% 30.00 in 10.0 mi Calm Calm - N/A   Clear
3:53 AM 46.0 °F - 43.0 °F 89% 30.00 in 10.0 mi Calm Calm - N/A   Clear
4:53 AM 44.1 °F - 42.1 °F 93% 30.02 in 10.0 mi Calm Calm - N/A   Clear
5:53 AM 43.0 °F - 42.1 °F 97% 30.02 in 10.0 mi Calm Calm - N/A   Clear
6:53 AM 48.9 °F - 46.0 °F 90% 30.02 in 10.0 mi Calm Calm - N/A   Clear
7:53 AM 55.0 °F - 48.0 °F 77% 30.02 in 10.0 mi Calm Calm - N/A   Clear
8:53 AM 61.0 °F - 48.0 °F 62% 30.02 in 10.0 mi WSW 3.5 mph - N/A   Clear
9:53 AM 64.4 °F - 39.2 °F 40% 30.01 in 10.0 mi Calm Calm - N/A   Clear
10:53 AM 66.9 °F - 41.0 °F 39% 30.00 in 10.0 mi Calm Calm - N/A   Clear
11:53 AM 68.0 °F - 39.2 °F 35% 29.97 in 10.0 mi South 6.9 mph - N/A   Clear
12:53 PM 69.1 °F - 39.9 °F 35% 29.98 in 10.0 mi Calm Calm - N/A   Clear
1:53 PM 71.1 °F - 39.0 °F 31% 29.97 in 10.0 mi SE 10.4 mph 17.3 mph N/A   Clear
2:53 PM 72.0 °F - 41.0 °F 33% 29.95 in 10.0 mi SSW 6.9 mph - N/A   Clear
3:53 PM 71.6 °F - 39.2 °F 31% 29.94 in 10.0 mi South 10.4 mph - N/A   Clear
5:53 PM 71.6 °F - 42.8 °F 35% 29.89 in 10.0 mi South 12.7 mph - N/A   Clear
6:53 PM 69.1 °F - 43.0 °F 39% 29.89 in 10.0 mi South 13.8 mph - N/A   Clear
7:53 PM 66.9 °F - 44.1 °F 44% 29.87 in 10.0 mi ESE 5.8 mph - N/A   Overcast
8:53 PM 66.0 °F - 45.0 °F 47% 29.86 in 10.0 mi ESE 6.9 mph - N/A   Overcast
9:53 PM 64.9 °F - 46.0 °F 50% 29.88 in 10.0 mi ESE 5.8 mph - N/A   Overcast
10:53 PM 61.0 °F - 51.1 °F 70% 29.89 in 9.0 mi East 9.2 mph - 0.02 in Rain Light Rain
11:53 PM 62.1 °F - 50.0 °F 65% 29.89 in 10.0 mi SE 12.7 mph - 0.00 in Rain Light Rain